Погода в Диюре

Россия / Республика Коми     65°16′36″N   53°21′32″E
темп.,
°C
ветер,
м/с
пор.,
м/с
влажн.,
%
обл.,
%
осадки,
мм/ч
давл.,
гПа
погр.,
м
29 июля, чт
чт2900:00+7ссз1398100 0.1 100697
03:00+6ссз1298100 0.2 100792
06:00+7ссз1196100 0.0 100690
09:00+9ссз1189100 0.0 1007377
12:00+11з1177100 0.4 1007758
15:00+12ссз117496 0.9 1006694
18:00+10св2286100 0.3 1006201
21:00+8в129393 0.3 100529
30 июля, пт
пт3000:00+8в1193100 0.0 100524
03:00+8всв1294100 0.0 100438
06:00+9в1389100 0.0 1004148
09:00+12в126763 0.0 1003603
12:00+17ссв014195 0.0 10021950
15:00+15всв2250100 0.0 1003422
18:00+14всв1357100 0.0 1003197
21:00+12вюв1165100 0.0 100313
31 июля, сб
сб3100:00+10ююв1168100 0.0 100415
03:00+10вюв2268100 0.0 100454
06:00+13юв366095 0.0 1003253
09:00+18юв464597 0.0 10021054
12:00+18юв4848100 0.0 1000820
15:00+15ю3977100 0.6 999572
18:00+13вюв41296100 6.4 997575
21:00+12всв3799100 13.7 994236
1 августа, вс
вс100:00+12з12100100 0.3 993123
03:00+12з3699100 0.3 994358
06:00+13зсз4893100 0.0 996625
09:00+14зсз4879100 0.0 997773
12:00+18сз466340 0.0 9981031
15:00+19ссз346090 0.2 9991220
18:00+16ссв346973 0.3 1001505
21:00+13св258351 0.3 1003159
2 августа, пн
пн200:00+10св119227 0.0 100418
03:00+9в119652 0.0 100514
06:00+12юв237836 0.0 1005220
09:00+18юв23593 0.0 1005861
12:00+22ю234999 0.0 10041439
15:00+22ю3351100 0.0 10041351
18:00+20ю356457 0.0 1003591
21:00+14ю2293100 0.3 100333